Wind_Speed
46 39 34 30 32 41 36 31 31 34 33 32 31 29 29 28 28 27 27 28 29 31 31 32 29 28 28 29 30 29 23 27 33 35 37 37 38 41 42 43 42 41 40 40 37 34 36
42 44 42 35 31 32 43 40 35 33 36 36 35 33 32 31 30 30 29 29 29 29 30 30 31 29 31 31 34 34 30 26 31 36 38 39 38 40 43 42 44 44 43 44 44 40 39
39 36 44 43 39 35 33 40 43 38 37 39 39 37 36 34 32 33 33 31 32 31 31 30 32 31 30 34 33 32 34 30 29 35 40 39 40 40 38 40 42 42 42 42 44 44 42
45 42 39 41 45 41 38 35 37 43 42 39 41 42 40 38 36 34 33 32 31 33 33 31 31 32 30 32 33 33 36 33 34 35 39 43 43 43 41 40 42 42 43 44 43 46 47
47 45 43 42 43 46 43 42 41 38 44 45 43 42 43 43 40 38 34 33 31 31 31 31 31 31 29 31 33 35 37 36 36 38 40 43 46 45 45 46 46 46 45 45 45 46 47
49 49 48 47 45 46 48 48 46 46 40 44 47 45 43 44 44 43 41 36 34 33 32 33 33 33 32 30 32 33 35 39 40 40 40 40 47 49 49 47 47 46 47 46 45 43 45
51 53 54 55 52 52 51 51 52 49 50 46 43 48 47 45 44 45 44 41 38 36 36 36 34 33 31 31 33 35 37 40 42 41 39 42 47 49 45 45 46 47 47 46 48 50 50
60 59 57 58 61 60 59 57 55 55 54 55 51 47 47 49 47 45 42 42 42 40 38 37 36 36 37 36 36 39 41 41 42 41 44 47 46 44 48 50 50 50 50 48 49 51 52
69 68 66 62 59 61 63 63 61 61 59 59 57 53 50 48 50 46 44 42 41 42 41 37 39 37 38 41 40 38 41 44 43 44 43 46 45 48 51 52 54 53 53 52 53 50 55
75 74 71 67 65 60 60 60 63 59 59 61 59 58 54 51 46 46 46 44 41 40 42 38 41 41 37 38 42 45 45 44 46 43 47 51 48 49 50 52 50 51 48 46 47 49 52
75 70 65 63 60 56 51 52 55 51 47 56 51 56 59 52 49 44 46 43 39 35 42 42 43 41 39 42 44 45 47 47 45 43 46 44 44 47 52 45 44 46 41 44 46 49 51
68 66 57 52 49 47 45 43 49 52 53 41 41 40 55 53 47 45 43 41 39 39 43 42 41 41 42 44 46 46 47 47 41 39 41 43 46 47 46 45 47 44 42 46 47 49 55
64 56 53 46 40 39 36 36 44 45 46 43 43 38 45 53 48 45 41 38 40 39 38 38 38 38 42 44 45 46 43 37 35 34 37 37 37 38 39 40 41 44 44 40 46 53 60
56 55 48 37 29 26 27 32 41 46 50 48 28 35 39 47 47 42 39 38 40 37 36 37 37 37 39 41 41 38 39 34 30 31 26 31 29 33 32 31 36 37 41 47 40 52 52
55 55 41 26 18 17 20 23 34 52 51 45 39 40 35 42 43 41 40 37 33 34 35 34 32 35 35 36 37 38 34 27 22 20 20 22 28 30 32 32 32 35 44 36 40 35 44
57 50 31 8 2 19 19 20 34 50 47 43 34 39 37 39 41 40 39 34 33 33 32 29 30 31 29 31 27 28 22 21 21 19 23 24 25 24 27 31 34 37 33 42 46 39 40
55 42 21 9 9 4 19 27 44 62 47 41 36 41 39 39 40 40 34 30 32 32 27 26 26 25 26 22 17 16 12 8 9 6 11 13 23 22 30 28 27 35 38 42 47 46 37
52 37 18 13 14 15 21 37 35 58 55 46 48 42 31 33 38 38 33 30 29 26 24 23 22 22 17 17 12 5 12 13 11 7 8 12 20 23 21 26 23 26 32 37 49 44 28
49 32 15 8 8 24 29 36 52 53 45 48 48 48 34 34 37 35 29 29 26 24 23 21 18 19 11 11 11 8 7 15 17 12 11 14 11 6 15 15 22 27 39 41 42 41 37
45 26 11 6 26 25 39 43 37 42 46 48 40 42 44 39 36 31 29 27 25 24 21 19 18 16 7 8 6 3 11 9 5 6 7 15 3 6 12 9 17 17 37 40 44 46 25
42 22 9 15 28 35 39 42 40 43 44 41 44 35 38 37 31 28 30 27 25 23 19 20 19 13 6 4 1 3 1 3 2 2 3 3 9 12 2 6 16 21 26 30 38 42 24
38 15 6 29 37 41 40 45 44 41 40 29 51 34 29 26 29 29 28 24 23 21 20 21 18 13 10 9 7 4 5 7 15 16 14 15 22 17 13 16 18 20 26 39 36 22 15
32 4 13 31 37 38 44 46 41 39 37 32 36 38 29 28 24 29 27 26 25 20 20 21 17 12 12 15 10 10 7 4 9 17 26 24 24 20 9 7 14 11 16 17 10 18 38
27 4 22 39 35 37 42 33 33 36 36 40 36 35 36 26 26 29 25 27 25 18 22 23 19 13 20 15 12 13 10 3 2 14 19 22 28 22 18 16 19 17 17 20 22 18 18
23 15 29 38 38 45 43 31 30 38 33 35 29 33 32 28 32 30 28 25 20 20 21 20 17 18 21 19 20 18 16 9 5 4 8 12 17 16 17 16 16 19 18 22 22 18 19
23 17 34 38 44 47 40 37 32 37 34 36 41 27 29 26 30 28 26 22 21 19 21 21 17 21 23 22 20 18 15 14 11 8 5 9 9 10 8 12 13 13 12 14 16 16 13
21 13 39 40 45 45 41 36 33 31 31 30 31 30 35 28 27 29 23 23 21 17 18 20 17 23 29 24 18 19 16 14 17 18 13 9 7 7 7 6 8 10 12 14 16 15 17
21 11 45 46 51 54 43 41 38 36 27 28 28 24 32 33 29 26 23 22 19 20 13 14 15 19 28 24 19 20 12 9 13 15 18 15 12 10 7 5 6 9 10 12 12 13 15
22 10 43 53 60 58 48 41 35 36 34 30 28 27 30 32 29 29 25 19 16 19 13 15 14 21 24 24 21 21 17 11 12 15 13 14 14 13 10 13 10 10 10 14 15 14 15
Wind_Direction
281 278 279 278 274 258 262 265 260 250 246 247 246 246 251 254 254 252 253 252 254 257 260 263 264 270 274 274 271 267 268 264 263 264 258 253 251 248 247 247 249 251 255 255 252 246 244
282 274 273 273 272 270 259 259 261 256 250 247 247 248 248 252 256 255 254 255 255 260 263 268 271 271 274 274 276 275 273 268 259 260 259 255 251 250 249 251 250 255 258 256 250 248 246
296 295 272 272 271 268 269 259 256 257 254 250 247 248 249 250 253 256 257 256 259 259 265 266 271 276 278 279 278 278 275 269 266 256 259 257 253 251 251 251 251 253 253 252 250 249 250
300 296 288 278 271 270 265 267 257 254 253 252 250 247 248 251 251 253 256 258 259 261 261 267 274 279 281 284 284 281 278 275 274 269 256 254 252 250 247 246 247 248 248 248 248 250 249
300 298 293 284 276 269 266 260 261 255 250 250 250 249 249 248 251 252 253 258 259 262 265 266 272 281 284 284 283 280 279 274 273 272 267 257 252 250 249 249 247 247 247 246 247 249 248
299 294 289 286 280 274 265 258 252 256 254 249 248 249 248 248 248 250 253 255 260 263 267 270 272 279 283 285 283 280 277 275 272 270 270 265 258 255 252 252 252 253 252 251 252 251 253
302 296 290 285 279 274 268 263 258 252 252 253 250 246 246 247 248 249 252 255 256 260 264 270 273 279 283 281 284 285 281 275 271 270 271 267 260 256 260 258 251 248 245 245 246 249 246
306 303 297 287 279 272 266 260 257 254 250 249 250 249 245 244 245 247 249 253 255 258 261 266 272 279 285 284 287 287 282 277 275 274 271 270 269 264 257 254 254 252 251 249 248 247 245
311 305 299 290 279 270 263 258 254 253 250 246 247 247 246 245 244 245 247 251 254 257 259 264 268 275 281 286 287 285 286 284 280 277 274 269 266 262 260 259 259 258 256 251 250 243 245
311 305 298 292 284 274 264 254 250 248 248 248 244 243 243 244 244 245 245 248 252 256 257 258 262 273 283 287 289 289 287 283 281 275 268 268 270 268 263 259 255 256 252 247 241 240 240
312 306 299 290 283 277 265 251 242 239 227 239 246 238 239 239 239 241 243 245 250 255 259 259 265 274 282 287 291 290 289 283 279 273 270 270 262 258 256 252 248 249 242 241 237 235 232
313 307 302 294 286 274 266 246 233 223 220 222 228 232 230 229 232 235 239 241 243 250 259 263 270 276 286 292 292 291 288 285 280 275 272 265 258 254 253 250 247 241 233 234 231 227 232
316 312 309 301 287 271 257 241 226 218 194 205 212 235 226 222 225 228 232 234 240 248 257 259 270 282 290 292 293 293 288 283 280 278 273 265 256 256 251 247 242 233 224 223 226 223 229
321 320 316 304 287 268 248 233 216 200 191 191 198 222 220 217 219 222 225 228 239 249 253 261 272 284 290 293 295 293 290 288 276 268 260 253 252 245 257 251 243 234 226 220 222 224 224
329 328 322 305 283 233 222 224 211 190 179 186 182 224 221 218 217 219 219 227 238 247 251 259 277 284 292 296 304 305 301 284 269 251 252 256 250 249 249 239 229 224 224 222 224 224 222
335 336 327 289 108 194 213 208 181 187 183 176 185 212 208 219 214 217 216 222 235 242 251 265 275 287 297 305 322 320 306 286 262 244 251 253 255 245 242 237 229 221 215 219 215 219 218
338 340 329 237 169 175 215 182 169 176 171 189 196 215 214 211 209 214 212 219 231 239 249 263 277 288 300 315 318 4 354 355 358 294 271 269 257 232 230 224 215 213 211 213 211 215 217
342 342 323 231 224 181 163 167 168 179 168 199 190 201 191 199 209 205 209 220 226 237 250 265 275 288 301 296 293 9 347 348 349 270 262 244 239 233 222 227 204 200 210 212 207 199 199
345 343 327 268 212 169 156 185 171 161 171 184 192 200 205 214 210 209 212 219 224 234 248 261 274 284 285 285 304 336 301 302 310 268 252 231 224 201 182 189 200 200 207 202 198 197 174
346 344 318 210 159 168 171 170 168 167 170 190 193 194 198 207 209 209 213 220 219 231 245 254 267 275 257 287 287 15 9 6 215 211 207 203 173 85 146 177 159 176 188 194 197 203 188
347 340 290 188 158 173 159 158 161 171 183 180 196 203 201 200 203 210 211 211 221 233 238 249 268 273 239 249 139 51 71 89 321 342 345 349 23 23 116 244 205 182 185 191 201 202 195
347 342 240 173 161 166 165 165 173 183 182 187 193 198 192 197 207 211 212 210 220 226 230 242 260 259 239 214 197 194 152 57 40 25 11 28 52 92 136 137 157 173 199 200 194 206 185
345 339 182 171 170 177 181 175 177 185 194 184 189 204 204 211 217 208 215 215 223 226 229 240 255 243 240 234 201 207 187 44 17 58 94 86 102 104 142 138 177 148 160 172 146 165 152
343 206 188 180 182 185 177 180 193 185 178 169 182 188 201 198 213 210 216 217 223 223 232 243 238 235 236 220 217 201 205 246 24 109 110 106 106 110 101 123 136 118 135 133 133 140 139
343 212 190 188 188 187 184 189 186 185 181 192 202 205 205 212 208 210 209 213 218 222 228 237 238 231 244 226 206 207 220 216 206 189 143 146 139 130 114 117 127 130 136 158 167 176 174
342 226 203 202 200 194 196 205 189 186 186 188 198 198 207 196 210 209 210 217 227 227 225 227 245 246 228 229 213 213 208 195 185 198 166 157 140 148 139 138 140 145 162 174 176 195 203
337 232 210 204 197 198 185 178 176 188 194 199 212 211 200 201 206 207 207 216 226 222 217 242 246 229 229 219 211 209 213 200 195 205 222 195 189 198 189 186 190 185 189 202 210 217 220
333 239 205 205 196 192 198 195 195 197 185 189 201 214 213 212 206 207 211 214 220 207 245 234 244 221 216 218 216 210 208 224 206 213 216 220 212 202 201 223 224 218 223 224 228 234 231
332 247 202 202 199 198 200 201 198 198 196 194 214 216 205 204 202 205 212 213 220 214 253 227 234 218 209 210 216 215 205 211 203 201 201 206 206 209 210 205 214 227 237 235 233 234 234
Height
5703 5702 5700 5699 5697 5697 5697 5698 5699 5700 5702 5705 5707 5709 5712 5714 5715 5717 5720 5722 5725 5726 5727 5729 5730 5730 5730 5731 5730 5730 5731 5731 5731 5731 5733 5734 5736 5739 5743 5745 5748 5752 5756 5758 5761 5763 5765
5691 5691 5690 5689 5689 5687 5687 5689 5691 5692 5694 5696 5699 5701 5703 5706 5708 5709 5713 5715 5716 5718 5720 5721 5723 5722 5721 5723 5723 5724 5723 5724 5724 5723 5724 5726 5729 5729 5733 5738 5741 5744 5746 5749 5750 5754 5755
5682 5679 5678 5678 5678 5679 5678 5678 5680 5682 5684 5686 5689 5692 5695 5697 5699 5701 5705 5706 5708 5709 5712 5714 5715 5714 5713 5713 5715 5717 5715 5713 5716 5716 5715 5718 5719 5721 5725 5728 5730 5734 5736 5738 5741 5745 5748
5672 5670 5669 5667 5667 5668 5669 5668 5669 5672 5674 5676 5679 5682 5685 5688 5690 5693 5696 5698 5700 5701 5703 5705 5706 5706 5705 5705 5706 5708 5707 5704 5705 5706 5708 5709 5710 5712 5715 5717 5718 5721 5725 5728 5732 5733 5737
5662 5659 5658 5657 5655 5655 5656 5658 5658 5659 5661 5665 5668 5670 5674 5678 5680 5684 5687 5689 5691 5693 5695 5696 5698 5699 5697 5697 5697 5697 5698 5696 5696 5696 5698 5699 5701 5702 5703 5704 5706 5709 5714 5717 5721 5724 5725
5650 5647 5645 5644 5642 5641 5642 5643 5645 5647 5650 5652 5656 5659 5663 5667 5670 5674 5678 5680 5682 5685 5687 5688 5689 5691 5690 5689 5689 5687 5688 5688 5686 5687 5689 5690 5688 5689 5690 5693 5698 5700 5704 5709 5712 5715 5715
5639 5634 5630 5627 5627 5626 5625 5627 5631 5634 5637 5639 5643 5647 5652 5655 5659 5663 5667 5671 5675 5678 5679 5680 5683 5682 5680 5681 5679 5678 5678 5677 5676 5676 5678 5674 5673 5677 5683 5684 5685 5685 5689 5696 5698 5698 5702
5622 5616 5611 5607 5605 5605 5606 5609 5612 5616 5621 5625 5629 5634 5639 5643 5647 5652 5657 5660 5663 5669 5671 5671 5672 5671 5670 5670 5670 5667 5667 5667 5665 5667 5663 5661 5663 5667 5667 5667 5671 5674 5677 5684 5685 5685 5689
5601 5594 5587 5582 5580 5578 5581 5585 5590 5595 5601 5607 5613 5620 5626 5630 5636 5643 5646 5650 5653 5657 5660 5664 5661 5662 5659 5661 5660 5656 5656 5654 5653 5653 5650 5645 5651 5651 5652 5654 5655 5660 5664 5667 5671 5672 5678
5581 5570 5560 5552 5548 5550 5552 5558 5564 5572 5579 5587 5596 5603 5611 5618 5627 5631 5637 5640 5644 5648 5648 5655 5653 5652 5650 5649 5650 5643 5642 5641 5640 5640 5633 5630 5636 5637 5637 5638 5639 5645 5649 5653 5657 5660 5666
5558 5545 5535 5526 5521 5518 5522 5529 5539 5550 5559 5567 5577 5585 5595 5606 5613 5621 5625 5630 5635 5638 5637 5643 5642 5641 5641 5641 5638 5633 5629 5625 5624 5622 5618 5619 5621 5619 5620 5626 5627 5634 5636 5639 5643 5646 5649
5535 5520 5509 5502 5496 5494 5496 5504 5514 5529 5542 5557 5564 5570 5579 5591 5602 5608 5614 5620 5626 5630 5630 5634 5632 5631 5630 5628 5625 5620 5615 5610 5608 5604 5603 5604 5603 5605 5608 5611 5615 5618 5623 5625 5630 5634 5634
5512 5499 5488 5479 5474 5473 5476 5483 5495 5511 5530 5543 5554 5561 5569 5579 5589 5596 5605 5611 5616 5619 5624 5625 5623 5623 5621 5616 5611 5605 5601 5597 5593 5590 5588 5589 5591 5593 5594 5599 5601 5603 5611 5615 5618 5619 5621
5496 5482 5470 5462 5458 5459 5462 5468 5478 5496 5517 5532 5547 5549 5560 5568 5577 5587 5595 5603 5608 5613 5615 5615 5615 5615 5613 5607 5601 5595 5590 5584 5580 5578 5577 5579 5581 5583 5589 5591 5593 5597 5603 5606 5607 5611 5620
5483 5468 5456 5451 5450 5451 5455 5461 5470 5485 5508 5524 5537 5544 5553 5559 5570 5579 5587 5594 5602 5605 5607 5608 5609 5607 5604 5598 5593 5584 5576 5573 5571 5573 5573 5572 5574 5577 5578 5579 5582 5588 5586 5606 5605 5610 5616
5472 5458 5448 5445 5446 5448 5451 5455 5464 5482 5502 5518 5528 5537 5545 5552 5562 5571 5579 5588 5593 5596 5599 5602 5602 5599 5596 5591 5584 5575 5570 5568 5566 5567 5566 5567 5568 5570 5570 5571 5574 5580 5591 5591 5595 5605 5609
5464 5452 5445 5444 5445 5446 5448 5454 5462 5478 5495 5509 5517 5523 5535 5547 5554 5563 5574 5581 5584 5590 5594 5596 5594 5593 5590 5585 5580 5575 5570 5567 5563 5562 5561 5563 5562 5566 5565 5566 5569 5573 5576 5584 5593 5601 5608
5459 5449 5443 5442 5442 5442 5445 5454 5464 5475 5491 5500 5504 5522 5533 5542 5549 5557 5569 5573 5579 5584 5588 5589 5588 5587 5586 5580 5575 5570 5570 5567 5565 5562 5561 5560 5559 5558 5559 5562 5565 5569 5576 5584 5588 5601 5608
5456 5447 5442 5440 5441 5444 5447 5453 5462 5474 5486 5497 5510 5522 5531 5538 5545 5556 5564 5568 5574 5579 5582 5582 5582 5582 5582 5576 5573 5570 5569 5568 5565 5562 5559 5558 5557 5557 5558 5561 5563 5565 5571 5579 5592 5600 5602
5455 5446 5443 5442 5444 5447 5450 5456 5465 5476 5485 5501 5507 5518 5528 5533 5542 5552 5558 5564 5570 5574 5577 5576 5577 5578 5577 5574 5573 5570 5567 5565 5564 5562 5560 5558 5556 5558 5560 5565 5568 5571 5576 5581 5589 5595 5603
5453 5445 5443 5443 5446 5451 5457 5461 5468 5478 5486 5498 5505 5515 5525 5529 5541 5549 5555 5561 5566 5570 5571 5571 5573 5575 5574 5573 5572 5569 5568 5567 5565 5564 5563 5562 5562 5561 5561 5561 5566 5573 5581 5585 5589 5599 5603
5451 5444 5442 5443 5448 5454 5461 5466 5473 5482 5492 5500 5507 5517 5525 5533 5539 5545 5552 5558 5561 5564 5566 5568 5570 5570 5570 5571 5573 5571 5571 5569 5565 5564 5563 5562 5562 5563 5568 5569 5572 5576 5581 5587 5592 5595 5602
5451 5448 5446 5449 5453 5457 5462 5470 5477 5484 5490 5499 5509 5517 5525 5531 5537 5543 5548 5553 5557 5560 5562 5563 5566 5568 5566 5565 5569 5569 5574 5572 5572 5570 5567 5567 5567 5569 5574 5574 5578 5583 5586 5589 5594 5598 5605
5451 5450 5449 5453 5455 5459 5467 5472 5478 5483 5490 5499 5506 5513 5522 5529 5534 5540 5545 5550 5554 5557 5558 5558 5563 5565 5563 5566 5569 5571 5574 5576 5576 5576 5575 5575 5574 5576 5580 5581 5585 5589 5590 5593 5601 5606 5611
5451 5451 5452 5454 5456 5462 5469 5474 5478 5483 5491 5499 5507 5513 5519 5525 5531 5537 5542 5546 5550 5552 5553 5555 5558 5562 5560 5563 5568 5570 5573 5578 5578 5577 5579 5580 5580 5582 5585 5587 5590 5593 5596 5601 5606 5611 5613
5448 5446 5449 5452 5454 5461 5467 5472 5478 5484 5491 5498 5503 5510 5516 5523 5529 5535 5540 5543 5546 5548 5550 5553 5553 5555 5559 5560 5563 5566 5572 5576 5580 5579 5583 5583 5584 5588 5588 5591 5593 5597 5600 5604 5608 5612 5615
5442 5440 5441 5446 5452 5458 5465 5472 5478 5484 5490 5495 5502 5508 5514 5519 5526 5532 5537 5540 5543 5545 5548 5549 5549 5551 5552 5557 5560 5564 5567 5572 5577 5580 5581 5584 5586 5588 5590 5593 5596 5598 5601 5603 5607 5613 5613
5434 5432 5436 5440 5447 5455 5463 5470 5476 5482 5488 5494 5500 5506 5512 5519 5525 5530 5534 5537 5540 5542 5544 5544 5546 5546 5550 5553 5557 5561 5565 5569 5573 5577 5579 5582 5584 5587 5590 5592 5596 5597 5600 5603 5606 5607 5611
5425 5423 5427 5435 5443 5451 5460 5467 5474 5480 5486 5491 5497 5503 5510 5517 5523 5526 5531 5534 5536 5539 5540 5540 5543 5544 5549 5553 5556 5560 5564 5568 5571 5574 5577 5581 5584 5587 5591 5592 5594 5596 5598 5599 5601 5604 5607